Home > Weather > Owensboro > Past weeks

Flag for USA Past Weather in Owensboro, Kentucky, USA — Yesterday and Last 2 Weeks

Now
81 °F

Clear.


Feels Like: 88 °F
Forecast: 76 / 91 °F
Wind: 6 mph from South

Location: Owensboro / Daviess

Current Time: Aug 24, 2016 at 10:06:39 PM

Latest Report: Aug 24, 2016 at 8:56 PM


Visibility: 10 mi

Pressure: 30.08 "Hg

Humidity: 88%

Dew Point: 77 °F

Location of OwensboroLocation

Past Weather in Owensboro — Graph

°F

Owensboro Temperature Yesterday

Maximum temperature yesterday: 85 °F (at 2:56 PM)
Minimum temperature yesterday: 62 °F (at 4:56 AM)
Average temperature yesterday: 74 °F

High & Low Weather Summary for the Past Weeks

 TemperatureHumidityPressure
High91 °F (Aug 24, 1:56 PM)100% (Aug 9, 8:56 PM)30.27 "Hg (Aug 9, 8:56 PM)
Low61 °F (Aug 22, 4:56 AM)47% (Aug 22, 12:56 PM)29.72 "Hg (Aug 20, 3:56 PM)
Average78 °F86%30.03 "Hg
* Reported Aug 9 8:02 PM — Aug 24 8:56 PM, Owensboro, Weather by CustomWeather, © 2016

Note: Actual official high and low records may vary slightly from our data, if they occured in-between our weather recording intervals... More about our weather records

Advertising

Owensboro Weather History for the Previous 24 Hours

Scroll right to see more
 ConditionsComfort  
Time TempWeatherWind HumidityBarometerVisibility
8:56 PM
Wed, Aug 24
81 °FClear.6 mph88%30.08 "Hg10 mi
7:56 PM82 °FClear.5 mph85%30.06 "Hg10 mi
6:56 PM86 °FSunny.9 mph75%30.05 "Hg10 mi
5:56 PM89 °FSunny.13 mph66%30.05 "Hg10 mi
4:56 PM90 °FPassing clouds.12 mph63%30.06 "Hg10 mi
3:56 PM91 °FScattered clouds.14 mph62%30.06 "Hg10 mi
2:56 PM91 °FScattered clouds.15 mph62%30.07 "Hg10 mi
1:56 PM91 °FScattered clouds.14 mph62%30.09 "Hg10 mi
12:56 PM90 °FScattered clouds.13 mph68%30.11 "Hg10 mi
11:56 AM89 °FPassing clouds.13 mph70%30.14 "Hg10 mi
10:56 AM85 °FSunny.10 mph77%30.15 "Hg10 mi
9:56 AM83 °FSunny.8 mph79%30.15 "Hg10 mi
8:56 AM79 °FSunny.8 mph87%30.15 "Hg10 mi
7:56 AM75 °FSunny.8 mph94%30.15 "Hg10 mi
6:56 AM72 °FSunny.7 mph96%30.15 "Hg10 mi
5:56 AM70 °FPassing clouds.6 mph100%30.15 "Hg10 mi
4:56 AM71 °FClear.5 mph93%30.15 "Hg10 mi
3:56 AM70 °FClear.5 mph96%30.14 "Hg10 mi
2:56 AM71 °FClear.6 mph91%30.14 "Hg10 mi
1:56 AM71 °FClear.6 mph87%30.15 "Hg10 mi
12:56 AM72 °FClear.6 mph87%30.16 "Hg10 mi
11:56 PM
Tue, Aug 23
73 °FClear.6 mph82%30.16 "Hg10 mi
10:56 PM74 °FClear.7 mph84%30.16 "Hg10 mi
Weather by CustomWeather, © 2016

See weather overviewHow to use our weather pages